QPF
0.00 0.00 0.00 0.03 0.15 0.14 0.16 0.28 0.43 0.42 0.08 0.01 0.00 0.00 0.01 0.03 0.02 0.00 0.00 0.00 0.00 0.00
0.00 0.00 0.00 0.01 0.30 0.46 0.27 0.33 0.49 0.79 0.34 0.03 0.01 0.01 0.02 0.05 0.02 0.01 0.00 0.00 0.00 0.00
0.01 0.01 0.00 0.01 0.18 0.53 0.77 0.56 0.55 0.66 0.33 0.08 0.03 0.06 0.04 0.04 0.02 0.01 0.00 0.00 0.00 0.00
0.10 0.04 0.01 0.03 0.13 0.42 0.94 0.89 0.74 0.59 0.46 0.16 0.20 0.36 0.23 0.13 0.09 0.04 0.01 0.00 0.00 0.00
0.17 0.10 0.01 0.02 0.17 0.15 0.91 1.23 1.24 1.10 0.65 0.18 0.23 0.40 0.45 0.27 0.27 0.18 0.09 0.03 0.02 0.01
0.12 0.07 0.09 0.14 0.23 0.31 0.34 1.03 1.19 1.29 0.95 0.21 0.14 0.16 0.14 0.20 0.14 0.14 0.12 0.04 0.02 0.02
0.25 0.08 0.11 0.41 0.44 0.51 0.46 0.71 0.88 0.99 0.63 0.25 0.10 0.09 0.09 0.08 0.07 0.06 0.04 0.01 0.01 0.00
0.29 0.24 0.08 0.14 0.30 0.51 0.51 0.53 0.84 0.98 0.75 0.30 0.06 0.03 0.03 0.03 0.03 0.04 0.02 0.01 0.00 0.00
0.08 0.12 0.14 0.17 0.14 0.19 0.36 0.48 0.45 0.57 0.71 0.66 0.24 0.07 0.03 0.02 0.01 0.00 0.00 0.00 0.00 0.00
0.03 0.04 0.03 0.06 0.08 0.10 0.17 0.25 0.30 0.27 0.23 0.23 0.21 0.16 0.08 0.02 0.00 0.00 0.00 0.00 0.00 0.00
0.00 0.00 0.00 0.00 0.00 0.00 0.00 0.01 0.04 0.06 0.09 0.10 0.05 0.03 0.03 0.01 0.00 0.00 0.00 0.00 0.00 0.00
0.00 0.00 0.00 0.00 0.00 0.00 0.00 0.00 0.00 0.00 0.00 0.00 0.01 0.00 0.00 0.00 0.00 0.00 0.00 0.00 0.00 0.00
0.00 0.00 0.00 0.00 0.00 0.00 0.00 0.00 0.00 0.00 0.00 0.00 0.00 0.00 0.00 0.00 0.00 0.00 0.00 0.00 0.00 0.00
0.00 0.00 0.00 0.00 0.00 0.00 0.00 0.00 0.00 0.00 0.00 0.00 0.00 0.00 0.00 0.00 0.00 0.00 0.00 0.00 0.00 0.00
MSLP
1010.51 1008.85 1007.78 1006.53 1005.06 1003.79 1002.88 1002.59 1002.07 1000.37 998.42 1001.92 1002.61 1003.29 1004.59 1005.37 1006.08 1006.83 1007.30 1008.15 1009.11 1010.02
1011.37 1009.30 1008.28 1006.32 1004.84 1003.72 1002.96 1002.70 1003.49 1001.04 998.13 1000.81 1001.83 1002.60 1004.02 1004.69 1005.38 1006.20 1006.74 1007.13 1007.92 1008.72
1012.01 1010.07 1008.82 1006.06 1005.49 1004.72 1003.98 1002.57 1001.98 1001.62 999.99 1000.30 1001.06 1002.43 1003.56 1004.27 1004.91 1006.07 1006.86 1007.15 1007.65 1008.16
1012.67 1011.13 1009.64 1006.30 1006.39 1005.68 1004.17 1003.18 1003.14 1001.82 996.65 997.49 999.64 1002.22 1002.72 1003.70 1004.95 1005.82 1006.62 1006.81 1007.46 1007.91
1013.59 1012.40 1010.10 1007.34 1007.59 1006.63 1004.37 1003.91 1003.77 1002.64 1002.56 996.49 1001.60 1002.57 1002.62 1004.19 1005.50 1006.16 1006.11 1006.65 1006.95 1007.76
1014.83 1013.00 1010.77 1009.10 1008.66 1007.18 1005.47 1005.57 1005.22 1003.71 1008.80 1002.48 1003.48 1005.32 1004.88 1005.08 1006.62 1005.53 1006.70 1006.59 1008.04 1007.62
1015.21 1013.61 1012.16 1011.33 1009.01 1008.53 1007.64 1008.24 1007.60 1007.42 1008.49 1007.02 1006.70 1006.55 1006.75 1006.91 1007.00 1006.82 1008.16 1008.93 1009.08 1008.48
1016.32 1014.55 1013.55 1011.77 1010.41 1009.58 1009.55 1009.53 1009.24 1009.33 1009.49 1007.63 1009.40 1008.27 1008.79 1009.27 1008.80 1009.00 1009.10 1009.64 1009.32 1008.97
1017.53 1016.12 1014.65 1013.30 1011.28 1010.72 1011.20 1010.70 1011.26 1011.82 1012.44 1009.83 1010.54 1009.34 1011.13 1011.33 1009.98 1009.33 1010.66 1010.19 1009.95 1009.41
1018.32 1017.29 1016.57 1015.23 1013.36 1011.80 1011.05 1011.38 1012.85 1013.38 1013.66 1011.88 1010.58 1010.71 1010.47 1010.07 1011.53 1012.20 1011.15 1010.61 1010.09 1009.53
1019.35 1018.58 1017.61 1016.44 1013.86 1012.30 1013.64 1014.33 1014.51 1014.35 1013.89 1013.97 1011.31 1011.92 1011.76 1012.65 1013.13 1013.08 1011.13 1010.98 1010.70 1010.46
1019.95 1018.77 1017.32 1016.17 1016.38 1016.55 1016.67 1016.60 1016.74 1016.63 1015.58 1016.22 1014.54 1013.99 1014.21 1013.84 1013.82 1012.84 1012.02 1012.20 1011.64 1011.70
1020.21 1019.75 1019.40 1019.30 1018.81 1018.76 1018.66 1018.40 1018.24 1017.42 1017.54 1016.23 1015.16 1014.73 1014.13 1013.62 1013.74 1013.62 1012.75 1012.36 1012.21 1012.27
1021.66 1021.03 1020.47 1019.86 1019.50 1019.44 1019.12 1018.85 1017.77 1018.02 1018.08 1017.17 1016.37 1016.03 1015.05 1014.70 1014.53 1013.59 1012.82 1012.75 1013.08 1012.77
Thickness
5503 5517 5528 5549 5569 5596 5613 5625 5638 5644 5662 5661 5675 5675 5671 5670 5669 5667 5667 5666 5662 5656
5472 5486 5496 5519 5543 5567 5584 5602 5608 5624 5637 5652 5662 5667 5664 5664 5663 5661 5661 5664 5660 5658
5449 5463 5466 5494 5515 5537 5556 5587 5612 5615 5642 5644 5652 5654 5654 5655 5653 5649 5650 5654 5653 5652
5431 5439 5444 5479 5496 5520 5546 5570 5586 5603 5632 5644 5646 5640 5645 5643 5637 5640 5639 5643 5642 5642
5416 5422 5438 5470 5480 5504 5532 5550 5571 5589 5565 5627 5609 5622 5630 5623 5621 5625 5629 5630 5634 5633
5411 5418 5438 5459 5473 5498 5520 5530 5548 5570 5512 5585 5594 5589 5599 5606 5604 5603 5606 5604 5611 5623
5408 5421 5437 5447 5476 5488 5502 5502 5526 5531 5534 5544 5560 5568 5572 5577 5587 5592 5585 5583 5586 5599
5407 5419 5428 5451 5465 5477 5484 5493 5508 5509 5509 5522 5529 5543 5545 5547 5559 5565 5568 5564 5571 5581
5403 5410 5424 5442 5460 5471 5476 5488 5487 5486 5486 5513 5502 5519 5514 5518 5539 5550 5539 5545 5554 5567
5394 5403 5409 5422 5445 5465 5477 5481 5467 5463 5462 5482 5498 5501 5508 5516 5509 5508 5522 5534 5542 5551
5388 5394 5403 5413 5439 5459 5449 5448 5450 5452 5457 5460 5482 5483 5488 5484 5485 5491 5512 5518 5525 5532
5386 5394 5405 5417 5417 5416 5415 5419 5421 5424 5437 5434 5452 5458 5459 5467 5471 5481 5492 5496 5506 5510
5385 5386 5389 5389 5395 5398 5399 5402 5402 5409 5410 5425 5437 5443 5451 5458 5461 5466 5477 5485 5488 5492
5371 5373 5378 5384 5388 5387 5390 5391 5399 5399 5400 5411 5421 5425 5435 5440 5444 5453 5462 5466 5469 5477